Weather History for KMKJ - September, 2012

Change the Weather History Date:

Wednesday, September 12, 2012

  Actual Average (KGEV) Record (KGEV)
Temperature  
Mean Temperature 64 °F -  
Max Temperature 79 °F 74 °F 120 °F (2008)
Min Temperature 50 °F 51 °F 34 °F (1993)
Growing Degree Days 14 (Base 50)    
Moisture  
Dew Point 55 °F    
Average Humidity 75    
Maximum Humidity 96    
Minimum Humidity 37    
Precipitation  
Precipitation 0.00 in - - ()
Sea Level Pressure  
Sea Level Pressure 30.39 in    
Wind  
Wind Speed 2 mph (East)    
Max Wind Speed 7 mph    
Max Gust Speed -    
Visibility 6 miles    
Events Fog    
Averages and records for this station are not official NWS values.
T = Trace of Precipitation, MM = Missing Value Source: NWS Daily Summary

Daily Weather History Graph

Daily Weather History Graph

Search for Another Location

Airport or City:

Trip Planner

Search our weather history database for the weather conditions in past years. The results will help you decide how hot, cold, wet, or windy it might be!

Date:

Astronomy

Sep. 12, 2012 Rise Set
Actual Time 7:05 AM EDT 7:36 PM EDT
Civil Twilight 6:39 AM EDT 8:02 PM EDT
Nautical Twilight 6:08 AM EDT 8:33 PM EDT
Astronomical Twilight 5:37 AM EDT 9:04 PM EDT
Moon 3:25 AM EDT (9/12) 5:20 PM EDT (9/12)
Length of Visible Light 13h 23m
Length of Day
12h 31m
Waning Crescent, 14% of the Moon is Illuminated
Sep 12
Waning Crescent
Sep 15
New
Sep 22
First Quarter
Sep 29
Full
Oct 8
Last Quarter

Hourly Weather History & Observations

Time (EDT) Temp. Dew Point Humidity Pressure Visibility Wind Dir Wind Speed Gust Speed Precip Events Conditions
12:35 AM 56.5 °F 54.9 °F 94% 30.37 in 5.0 mi East 3.5 mph - N/A   Clear
12:55 AM 56.3 °F 54.9 °F 95% 30.38 in 5.0 mi Calm Calm - N/A   Clear
1:15 AM 56.3 °F 54.5 °F 94% 30.38 in 4.0 mi Calm Calm - N/A   Clear
1:35 AM 55.6 °F 54.0 °F 94% 30.38 in 3.0 mi Calm Calm - N/A   Clear
1:55 AM 55.8 °F 54.0 °F 94% 30.38 in 5.0 mi Calm Calm - N/A   Clear
2:15 AM 55.4 °F 54.0 °F 95% 30.38 in 0.2 mi Calm Calm - N/A Fog Fog
2:35 AM 54.5 °F 53.1 °F 95% 30.38 in 0.5 mi Calm Calm - N/A Fog Fog
2:55 AM 54.5 °F 52.9 °F 94% 30.38 in 0.2 mi Calm Calm - N/A Fog Fog
3:15 AM 53.6 °F 52.2 °F 95% 30.38 in 0.2 mi Calm Calm - N/A Fog Fog
3:35 AM 53.1 °F 51.8 °F 95% 30.38 in 0.2 mi Calm Calm - N/A Fog Fog
3:55 AM 52.9 °F 51.6 °F 95% 30.37 in 0.5 mi Calm Calm - N/A Fog Fog
4:15 AM 52.5 °F 51.3 °F 95% 30.38 in 0.2 mi Calm Calm - N/A Fog Fog
4:35 AM 52.7 °F 51.3 °F 95% 30.38 in 0.2 mi Calm Calm - N/A Fog Fog
4:55 AM 52.2 °F 51.1 °F 96% 30.37 in 0.2 mi Calm Calm - N/A Fog Fog
5:15 AM 51.6 °F 50.4 °F 95% 30.38 in 0.2 mi Calm Calm - N/A Fog Fog
5:35 AM 51.8 °F 50.5 °F 95% 30.38 in 0.2 mi Calm Calm - N/A Fog Fog
5:55 AM 51.8 °F 50.4 °F 95% 30.38 in 0.2 mi Calm Calm - N/A Fog Fog
6:15 AM 51.3 °F 50.0 °F 95% 30.39 in 0.2 mi Calm Calm - N/A Fog Fog
6:35 AM 51.1 °F 49.8 °F 95% 30.39 in 0.2 mi Calm Calm - N/A Fog Fog
6:55 AM 51.4 °F 50.2 °F 95% 30.40 in 0.2 mi Calm Calm - N/A Fog Fog
7:15 AM 50.9 °F 49.8 °F 96% 30.41 in 0.2 mi Calm Calm - N/A Fog Fog
7:35 AM 51.3 °F 50.0 °F 95% 30.42 in 0.2 mi Calm Calm - N/A Fog Fog
7:55 AM 52.3 °F 51.1 °F 95% 30.42 in 0.2 mi Calm Calm - N/A Fog Fog
8:15 AM 53.2 °F 52.0 °F 95% 30.42 in 0.2 mi Calm Calm - N/A Fog Fog
8:35 AM 54.9 °F 53.4 °F 95% 30.42 in 0.2 mi Calm Calm - N/A Fog Fog
8:55 AM 56.8 °F 55.6 °F 96% 30.42 in 0.2 mi Calm Calm - N/A Fog Fog
9:15 AM 59.2 °F 57.7 °F 95% 30.43 in 3.0 mi ESE 3.5 mph - N/A   Mostly Cloudy
9:35 AM 60.4 °F 59.0 °F 95% 30.43 in 5.0 mi East 3.5 mph - N/A   Scattered Clouds
9:55 AM 63.5 °F 61.0 °F 91% 30.44 in 10.0 mi East 3.5 mph - N/A   Scattered Clouds
10:15 AM 64.9 °F 60.4 °F 85% 30.44 in 10.0 mi ENE 3.5 mph - N/A   Clear
10:35 AM 66.2 °F 60.3 °F 81% 30.44 in 10.0 mi East 3.5 mph - N/A   Clear
10:55 AM 69.3 °F 60.8 °F 74% 30.44 in 10.0 mi ENE 3.5 mph - N/A   Clear
11:15 AM 70.5 °F 60.3 °F 70% 30.44 in 10.0 mi ENE 3.5 mph - N/A   Clear
11:35 AM 71.6 °F 60.4 °F 68% 30.44 in 10.0 mi SSE 3.5 mph - N/A   Clear
11:55 AM 74.5 °F 59.0 °F 58% 30.44 in 10.0 mi Calm Calm - N/A   Mostly Cloudy
12:15 PM 75.6 °F 57.4 °F 53% 30.43 in 10.0 mi Calm Calm - N/A   Mostly Cloudy
12:35 PM 75.4 °F 57.2 °F 53% 30.43 in 10.0 mi ENE 3.5 mph - N/A   Mostly Cloudy
12:55 PM 77.4 °F 57.9 °F 51% 30.42 in 10.0 mi Calm Calm - N/A   Scattered Clouds
1:15 PM 77.7 °F 57.6 °F 50% 30.42 in 10.0 mi ESE 5.8 mph - N/A   Mostly Cloudy
1:35 PM 76.5 °F 57.6 °F 52% 30.41 in 10.0 mi ESE 3.5 mph - N/A   Mostly Cloudy
1:55 PM 78.8 °F 56.5 °F 46% 30.40 in 10.0 mi Calm Calm - N/A   Mostly Cloudy
2:15 PM 77.7 °F 56.1 °F 47% 30.40 in 10.0 mi East 3.5 mph - N/A   Scattered Clouds
2:35 PM 76.6 °F 55.6 °F 48% 30.38 in 10.0 mi Calm Calm - N/A   Scattered Clouds
2:55 PM 79.2 °F 55.2 °F 44% 30.38 in 10.0 mi NE 3.5 mph - N/A   Scattered Clouds
3:15 PM 78.8 °F 54.9 °F 44% 30.37 in 10.0 mi ENE 6.9 mph - N/A   Mostly Cloudy
3:35 PM 78.8 °F 52.3 °F 40% 30.36 in 10.0 mi East 5.8 mph - N/A   Mostly Cloudy
3:55 PM 79.0 °F 50.4 °F 37% 30.36 in 10.0 mi Calm Calm - N/A   Scattered Clouds
4:15 PM 78.8 °F 50.2 °F 37% 30.35 in 10.0 mi Calm Calm - N/A   Clear
4:35 PM 78.1 °F 51.3 °F 39% 30.35 in 10.0 mi East 4.6 mph - N/A   Clear
4:55 PM 78.4 °F 51.3 °F 39% 30.35 in 10.0 mi Calm Calm - N/A   Clear
5:15 PM 77.9 °F 51.6 °F 40% 30.35 in 10.0 mi ESE 3.5 mph - N/A   Scattered Clouds
5:55 PM 77.7 °F 50.2 °F 38% 30.35 in 10.0 mi Calm Calm - N/A   Scattered Clouds
6:15 PM 76.8 °F 51.4 °F 41% 30.35 in 10.0 mi East 6.9 mph - N/A   Clear
6:35 PM 75.7 °F 51.8 °F 43% 30.35 in 10.0 mi NE 6.9 mph - N/A   Clear
6:55 PM 75.6 °F 52.2 °F 44% 30.35 in 10.0 mi ENE 4.6 mph - N/A   Scattered Clouds
7:15 PM 73.0 °F 56.1 °F 55% 30.35 in 10.0 mi SE 3.5 mph - N/A   Clear
7:35 PM 71.2 °F 58.1 °F 63% 30.36 in 10.0 mi SE 3.5 mph - N/A   Clear
7:55 PM 70.0 °F 58.5 °F 67% 30.37 in 10.0 mi ESE 3.5 mph - N/A   Clear
8:35 PM 68.0 °F 58.8 °F 72% 30.38 in 10.0 mi ENE 4.6 mph - N/A   Clear
8:55 PM 66.7 °F 58.6 °F 75% 30.39 in 10.0 mi NE 5.8 mph - N/A   Clear
9:15 PM 66.2 °F 58.5 °F 76% 30.40 in 10.0 mi Calm Calm - N/A   Scattered Clouds
9:35 PM 65.1 °F 58.3 °F 78% 30.41 in 10.0 mi ENE 4.6 mph - N/A   Scattered Clouds
9:55 PM 64.0 °F 58.3 °F 82% 30.41 in 10.0 mi ENE 3.5 mph - N/A   Mostly Cloudy
10:15 PM 63.5 °F 58.1 °F 83% 30.41 in 10.0 mi ENE 3.5 mph - N/A   Scattered Clouds
10:35 PM 63.5 °F 58.1 °F 83% 30.41 in 10.0 mi Calm Calm - N/A   Mostly Cloudy
10:55 PM 62.8 °F 57.6 °F 83% 30.41 in 10.0 mi ENE 4.6 mph - N/A   Mostly Cloudy
11:15 PM 61.9 °F 57.6 °F 86% 30.41 in 10.0 mi Calm Calm - N/A   Clear
11:35 PM 61.9 °F 57.2 °F 85% 30.41 in 10.0 mi Calm Calm - N/A   Clear
11:55 PM 61.2 °F 56.8 °F 86% 30.41 in 10.0 mi NE 4.6 mph - N/A   Clear